• In Hungary
  • List of Countries
  • For 7 days
  • Water Temperature
  • Satellite Maps
  • Weather Map
  • News
  • Weather Widgets
  • user-avatar
    Login

    Hourly Weather Widzino

    Today, 18 November, Saturday

    Time Temperature Precipitation Wind Pressure Humidity
    00:00 +2°C° 0 mm 6 mps 760 mmHg 88%
    01:00 +2°C° 0 mm 6 mps 759 mmHg 88%
    02:00 +2°C° 0 mm 7 mps 759 mmHg 88%
    03:00 +2°C° 0 mm 7 mps 758 mmHg 87%
    04:00 +2°C° 0 mm 7 mps 758 mmHg 87%
    05:00 0°C° 0 mm 7 mps 757 mmHg 86%
    06:00 0°C° 0 mm 7 mps 756 mmHg 86%
    07:00 +1°C° 0 mm 6 mps 756 mmHg 87%
    08:00 0°C° 0 mm 7 mps 755 mmHg 85%
    09:00 +1°C° 0 mm 8 mps 755 mmHg 83%
    10:00 +1°C° 0 mm 9 mps 754 mmHg 81%
    11:00 +1°C° 0 mm 9 mps 753 mmHg 77%
    12:00 +2°C° 0 mm 10 mps 752 mmHg 73%
    13:00 +2°C° 0 mm 9 mps 751 mmHg 71%
    14:00 +2°C° 0.3 mm 9 mps 751 mmHg 72%
    15:00 +2°C° 0.3 mm 10 mps 750 mmHg 72%
    16:00 +2°C° 0.3 mm 10 mps 749 mmHg 73%
    17:00 +2°C° 1 mm 10 mps 749 mmHg 75%
    18:00 +2°C° 1 mm 9 mps 748 mmHg 77%
    19:00 +2°C° 1 mm 8 mps 748 mmHg 80%
    20:00 +2°C° 0.3 mm 8 mps 748 mmHg 79%
    21:00 +3°C° 0.3 mm 7 mps 747 mmHg 79%
    22:00 +2°C° 0.3 mm 7 mps 747 mmHg 78%
    23:00 +2°C° 0.3 mm 7 mps 747 mmHg 80%

    Tomorrow, 19 November, Sunday

    Time Temperature Precipitation Wind Pressure Humidity
    00:00 +2°C° 0.3 mm 7 mps 747 mmHg 81%
    01:00 +2°C° 0.3 mm 7 mps 747 mmHg 83%
    02:00 +1°C° 0.4 mm 8 mps 746 mmHg 82%
    03:00 +1°C° 0.4 mm 8 mps 746 mmHg 82%
    04:00 +1°C° 0.4 mm 8 mps 746 mmHg 81%
    05:00 +1°C° 0.3 mm 8 mps 745 mmHg 81%
    06:00 +2°C° 0.3 mm 8 mps 745 mmHg 81%
    07:00 +2°C° 0.3 mm 8 mps 745 mmHg 81%
    08:00 +2°C° 0.4 mm 9 mps 744 mmHg 80%
    09:00 +2°C° 0.4 mm 9 mps 744 mmHg 79%
    10:00 +2°C° 0.4 mm 9 mps 744 mmHg 78%
    11:00 +2°C° 0.9 mm 8 mps 744 mmHg 78%
    12:00 +2°C° 0.9 mm 8 mps 744 mmHg 78%
    13:00 +4°C° 0.9 mm 8 mps 743 mmHg 77%
    14:00 +4°C° 0.3 mm 7 mps 743 mmHg 77%
    15:00 +3°C° 0.3 mm 7 mps 743 mmHg 77%
    16:00 +3°C° 0.3 mm 7 mps 743 mmHg 77%
    17:00 +3°C° 0.2 mm 6 mps 744 mmHg 79%
    18:00 +2°C° 0.2 mm 6 mps 744 mmHg 80%
    19:00 +2°C° 0.2 mm 6 mps 744 mmHg 82%
    20:00 +2°C° 0.5 mm 6 mps 745 mmHg 83%
    21:00 +2°C° 0.5 mm 7 mps 745 mmHg 84%
    22:00 +3°C° 0.5 mm 7 mps 746 mmHg 85%
    23:00 +2°C° 0.5 mm 8 mps 746 mmHg 83%

    Day after tomorrow, 20 November, Monday

    Time Temperature Precipitation Wind Pressure Humidity
    00:00 +2°C° 0.5 mm 8 mps 747 mmHg 81%
    01:00 +2°C° 0.5 mm 9 mps 748 mmHg 79%
    02:00 +2°C° 0.4 mm 8 mps 748 mmHg 80%
    03:00 +2°C° 0.4 mm 8 mps 749 mmHg 81%
    04:00 +3°C° 0.4 mm 7 mps 750 mmHg 81%
    05:00 +2°C° 0.1 mm 7 mps 751 mmHg 82%
    06:00 +2°C° 0.1 mm 6 mps 751 mmHg 83%
    07:00 +2°C° 0.1 mm 6 mps 752 mmHg 83%
    08:00 +2°C° 0 mm 6 mps 753 mmHg 80%
    09:00 +2°C° 0 mm 6 mps 753 mmHg 76%
    10:00 +2°C° 0 mm 5 mps 754 mmHg 72%
    11:00 +2°C° 0 mm 5 mps 754 mmHg 69%
    12:00 +2°C° 0 mm 5 mps 754 mmHg 67%
    13:00 +2°C° 0 mm 5 mps 754 mmHg 64%
    14:00 +3°C° 0 mm 4 mps 754 mmHg 67%
    15:00 +1°C° 0 mm 4 mps 754 mmHg 70%
    16:00 +2°C° 0 mm 3 mps 754 mmHg 73%
    17:00 +2°C° 0 mm 3 mps 754 mmHg 76%
    18:00 +2°C° 0 mm 2 mps 753 mmHg 78%
    19:00 +2°C° 0 mm 2 mps 753 mmHg 81%
    20:00 +2°C° 0 mm 2 mps 753 mmHg 84%
    21:00 +2°C° 0 mm 2 mps 753 mmHg 87%
    22:00 +2°C° 0 mm 2 mps 753 mmHg 90%
    23:00 +2°C° 0 mm 2 mps 753 mmHg 91%

    21 November, Tuesday

    Time Temperature Precipitation Wind Pressure Humidity
    00:00 +2°C° 0 mm 2 mps 752 mmHg 92%
    01:00 +2°C° 0 mm 2 mps 752 mmHg 94%
    02:00 +1°C° 0 mm 2 mps 752 mmHg 94%
    03:00 +1°C° 0 mm 2 mps 752 mmHg 95%
    04:00 +1°C° 0 mm 2 mps 752 mmHg 95%
    05:00 +2°C° 0 mm 1 mps 752 mmHg 95%
    06:00 +2°C° 0 mm 1 mps 752 mmHg 95%
    07:00 +1°C° 0 mm 1 mps 752 mmHg 95%
    08:00 +2°C° 0 mm 1 mps 752 mmHg 92%
    09:00 +3°C° 0 mm 1 mps 753 mmHg 90%
    10:00 +3°C° 0 mm 0 mps 753 mmHg 87%
    11:00 +4°C° 0 mm 1 mps 753 mmHg 84%
    12:00 +5°C° 0 mm 1 mps 754 mmHg 82%
    13:00 +5°C° 0 mm 1 mps 754 mmHg 80%
    14:00 +5°C° 0 mm 1 mps 754 mmHg 83%
    15:00 +4°C° 0 mm 1 mps 754 mmHg 86%
    16:00 +2°C° 0 mm 2 mps 755 mmHg 89%
    17:00 +3°C° 0 mm 1 mps 755 mmHg 88%
    18:00 +3°C° 0 mm 1 mps 755 mmHg 87%
    19:00 +3°C° 0 mm 1 mps 755 mmHg 87%
    20:00 +3°C° 0 mm 1 mps 756 mmHg 87%
    21:00 +3°C° 0 mm 1 mps 756 mmHg 88%
    22:00 +2°C° 0 mm 1 mps 756 mmHg 89%
    23:00 +2°C° 0 mm 1 mps 756 mmHg 90%

    22 November, Wednesday

    Time Temperature Precipitation Wind Pressure Humidity
    00:00 +1°C° 0 mm 2 mps 756 mmHg 91%
    01:00 +1°C° 0 mm 2 mps 756 mmHg 92%
    02:00 +1°C° 0.1 mm 2 mps 756 mmHg 92%
    03:00 +1°C° 0.1 mm 3 mps 755 mmHg 91%
    04:00 +1°C° 0.1 mm 3 mps 755 mmHg 91%
    05:00 0°C° 0.2 mm 4 mps 755 mmHg 90%
    06:00 0°C° 0.2 mm 5 mps 754 mmHg 89%
    07:00 +1°C° 0.2 mm 5 mps 754 mmHg 88%
    08:00 +1°C° 0.2 mm 6 mps 754 mmHg 87%
    09:00 0°C° 0.2 mm 7 mps 753 mmHg 86%
    10:00 +2°C° 0.2 mm 7 mps 753 mmHg 86%
    11:00 +2°C° 0.1 mm 7 mps 753 mmHg 87%
    12:00 +3°C° 0.1 mm 7 mps 752 mmHg 88%
    13:00 +3°C° 0.1 mm 7 mps 752 mmHg 89%
    14:00 +4°C° 0.1 mm 7 mps 751 mmHg 90%
    15:00 +4°C° 0.1 mm 7 mps 751 mmHg 91%
    16:00 +5°C° 0.1 mm 8 mps 751 mmHg 92%
    17:00 +5°C° 0.5 mm 8 mps 751 mmHg 92%
    18:00 +6°C° 0.5 mm 8 mps 751 mmHg 93%
    19:00 +6°C° 0.5 mm 8 mps 751 mmHg 93%
    20:00 +7°C° 0.1 mm 8 mps 751 mmHg 92%
    21:00 +7°C° 0.1 mm 8 mps 752 mmHg 92%
    22:00 +8°C° 0.1 mm 7 mps 752 mmHg 91%
    23:00 +8°C° 0 mm 7 mps 753 mmHg 91%

    23 November, Thursday

    Time Temperature Precipitation Wind Pressure Humidity
    00:00 +6°C° 0 mm 7 mps 753 mmHg 92%
    01:00 +6°C° 0 mm 7 mps 753 mmHg 92%
    02:00 +6°C° 0 mm 7 mps 753 mmHg 93%
    03:00 +5°C° 0 mm 6 mps 754 mmHg 94%
    04:00 +5°C° 0 mm 6 mps 754 mmHg 94%
    05:00 +4°C° 0 mm 6 mps 754 mmHg 94%
    06:00 +5°C° 0 mm 5 mps 754 mmHg 93%
    07:00 +5°C° 0 mm 5 mps 754 mmHg 92%
    08:00 +4°C° 0 mm 6 mps 754 mmHg 86%
    09:00 +5°C° 0 mm 6 mps 755 mmHg 80%
    10:00 +7°C° 0 mm 6 mps 755 mmHg 75%
    11:00 +7°C° 0 mm 6 mps 755 mmHg 70%
    12:00 +8°C° 0 mm 6 mps 754 mmHg 65%
    13:00 +9°C° 0 mm 7 mps 754 mmHg 60%
    14:00 +8°C° 0 mm 7 mps 754 mmHg 64%
    15:00 +8°C° 0 mm 7 mps 754 mmHg 67%
    16:00 +6°C° 0 mm 7 mps 754 mmHg 71%
    17:00 +6°C° 0 mm 7 mps 754 mmHg 72%
    18:00 +6°C° 0 mm 7 mps 754 mmHg 74%
    19:00 +6°C° 0 mm 7 mps 755 mmHg 75%
    20:00 +6°C° 0 mm 7 mps 755 mmHg 77%
    21:00 +6°C° 0 mm 7 mps 755 mmHg 79%
    22:00 +6°C° 0 mm 7 mps 755 mmHg 81%
    23:00 +6°C° 0 mm 7 mps 756 mmHg 83%
    Show more